Location: Altleiningen
(49.5078°N, 8.0741°E)
Time: 16:04:05
(UTC+00:00)

Cosmos 1072 Rocket - Pass Details

Date: 14 June 2025
Orbit: 947 x 1008 km, 82.9° (Epoch: 19 July)

Event Time Altitude Azimuth Distance (km) Brightness Sun altitude
Rises 22:32:49 0° 350° (N) 3,659 9.4 -16.1°
Reaches altitude 10° 22:35:21 10° 351° (N) 2,701 8.2 -16.2°
Maximum altitude 22:41:32 86° 80° (E) 961 4.4 -16.4°
Enters shadow 22:45:14 26° 169° (S) 1,787 5.3 -16.6°
